Showing default

GALAXY 32, 54244

Orbit data source: Space-Track

GALAXY 32, 54244 is a payload satellite owned by Intelsat SA (US) (US) in GEO that was launched on Sat, 12 Nov 2022 UTC via an FALCON 9 launch vehicle from the Air Force Eastern Test Range (AFETR). Payload-class satellites include a variety of spacecraft equipped with specific instruments for various scientific and technological missions. These include communications satellites like Starlink; space stations such as the ISS; scientific satellites like the Hubble; Earth observation satellites from companies like Planet Labs, Umbra, and HawkEye 360; GPS; miniature CubeSats for education and research; and military/defense satellites.

Loading next visibility...
Identifier
54244, 2022-153B
Orbit
GEO
Country
Flag of USUS
Related business
Manufacturer
Maxar Space Sol
Mission
Operational Commercial Communications
Bus & Motor
SSL-1300, R-4D
Mass
3,300 kg wet, ~2,000 kg dry
Launch date (UTC)
2022-11-12 (3 years ago)
Launch vehicle
FALCON 9
Launch site
Air Force Eastern Test Range (AFETR)
Object type
Payload
Rocket body
Debris
Shape & HBR
Box + 2 Pan, 13.5 m
Radar Cross Section
36.085 m², Large (>1 m²)

Expand to show TLE details & history
Last TLE update: 18 hours ago

TLE from 18 hours ago
0 GALAXY 32
1 54244U 22153B   25346.54364751 -.00000163  00000-0  00000-0 0  9998
2 54244   0.0111  11.8146 0002585 300.8400 233.5475  1.00272099 11270
Epoch: 2025-12-12T13:02Z
TLE epoch observation values (Epoch: 2025-12-12T13:02:51.144Z)
Latitude
-0.00446°
Longitude
-91.02456°
Altitude
35,792.435 km
Speed
3.074 km/s
True Right ascension
12h 24m 41s
True Declination
0° 00' 16"
Sunlit
Object was in daylight at epoch
Visualization orbit readout
Latitude
Unknown
Longitude
Unknown
Altitude
Unknown
Speed
Unknown
Apparent Right ascension
Unknown
Apparent Declination
Unknown
Sunlit
N/A
Visualization observer readout
Local Sidereal Time
05:25:05
Azimuth
Unknown
Elevation
Unknown
Doppler factor
Unknown
Orbital elements
Apogee altitude
35,798.477 km
Perigee altitude
35,776.677 km
Semi-major axis
42,165.714 km
Eccentricity
0.00026
Inclination
0.0111°
RAAN
11.8146°
Arg. of periapsis
300.84°
True anomaly
233.52368°
Mean anomaly
233.5475°
Eccentric anomaly
233.53559°
Mean motion
0.25067 °/min
Orbital period
1,436.15 mins
BSTAR
0
Loading maneuver chart data...
Computing Atmospheric mass density...
Loading historical data...
Loading historical data...
Loading historical data...
Loading historical data...
Loading historical data...
Loading historical data...
Loading historical data...
Other satellites on launch #153 in the year 2022 (2022-11-12 UTC)

Documentation

Showing up to 5 results
|